North Myrtle Beach, SC

5:04 AM EDT on September 24, 2017 (GMT -0400)
Grand Strand

Weather History for KCRE - March, 2014

Change the Weather History Date:

Thursday, March 20, 2014

  Actual Average Record
Temperature  
Mean Temperature 56 °F 55 °F  
Max Temperature 70 °F 65 °F 77 °F (2012)
Min Temperature 41 °F 45 °F 29 °F (1993)
Degree Days  
Heating Degree Days 9 10  
Month to date heating degree days 312 242  
Since 1 July heating degree days 2336 2186  
Cooling Degree Days 0 0  
Month to date cooling degree days 0 0  
Year to date cooling degree days 0 0  
Growing Degree Days 6 (Base 50)    
Moisture  
Dew Point 46 °F    
Average Humidity 70    
Maximum Humidity 100    
Minimum Humidity 40    
Precipitation  
Precipitation 0.00 in 0.12 in 2.59 in (2003)
Month to date precipitation 2.20 2.51  
Year to date precipitation 6.32 9.62  
Sea Level Pressure  
Sea Level Pressure 30.01 in    
Wind  
Wind Speed 8 mph (WSW)    
Max Wind Speed 16 mph    
Max Gust Speed 19 mph    
Visibility 8 miles    
Events      
T = Trace of Precipitation, MM = Missing Value Source: NWS Daily Summary

Daily Weather History Graph

Daily Weather History Graph

Search for Another Location

Airport or City:

Trip Planner

Search our weather history database for the weather conditions in past years. The results will help you decide how hot, cold, wet, or windy it might be!

Date:

Astronomy

Mar. 20, 2014 Rise Set
Actual Time 7:18 AM EDT 7:26 PM EDT
Civil Twilight 6:53 AM EDT 7:51 PM EDT
Nautical Twilight 6:24 AM EDT 8:20 PM EDT
Astronomical Twilight 5:55 AM EDT 8:49 PM EDT
Moon 11:32 PM EDT (3/20) 9:34 AM EDT (3/20)
Length of Visible Light 12h 57m
Length of Day
12h 07m
Waning Gibbous, 84% of the Moon is Illuminated
Mar 20
Waning Gibbous
Mar 23
Last Quarter
Mar 30
New
Apr 7
First Quarter
Apr 15
Full

Hourly Weather History & Observations

Time (EDT) Temp. Windchill Dew Point Humidity Pressure Visibility Wind Dir Wind Speed Gust Speed Precip Events Conditions
12:18 AM 44.1 °F - 43.0 °F 96% 30.03 in 1.5 mi Calm Calm - N/A   Clear
12:30 AM 45.0 °F - 42.1 °F 90% 30.03 in 4.0 mi Calm Calm - N/A   Clear
12:44 AM 44.1 °F - 43.0 °F 96% 30.03 in 1.8 mi Calm Calm - N/A   Clear
12:53 AM 44.1 °F - 42.1 °F 93% 30.03 in 2.5 mi Calm Calm - N/A   Clear
1:24 AM 43.0 °F - 41.0 °F 93% 30.03 in 5.0 mi Calm Calm - N/A   Clear
1:45 AM 43.0 °F - 42.1 °F 97% 30.03 in 2.0 mi Calm Calm - N/A   Clear
1:53 AM 43.0 °F 41.3 °F 42.1 °F 97% 30.03 in 4.0 mi SW 3.5 mph - N/A   Clear
2:16 AM 42.1 °F - 41.0 °F 96% 30.02 in 1.5 mi Calm Calm - N/A   Clear
2:45 AM 42.1 °F 40.2 °F 41.0 °F 96% 30.01 in 3.0 mi SW 3.5 mph - N/A   Clear
2:53 AM 42.1 °F - 41.0 °F 96% 30.01 in 4.0 mi Calm Calm - N/A   Clear
3:53 AM 46.9 °F - 45.0 °F 93% 30.00 in 8.0 mi WSW 5.8 mph - N/A   Clear
4:53 AM 46.0 °F 43.9 °F 44.1 °F 93% 29.99 in 7.0 mi WSW 4.6 mph - N/A   Clear
5:53 AM 46.9 °F - 45.0 °F 93% 30.00 in 10.0 mi West 4.6 mph - N/A   Clear
6:53 AM 46.0 °F 43.9 °F 44.1 °F 93% 30.01 in 9.0 mi West 4.6 mph - N/A   Clear
7:53 AM 48.0 °F - 45.0 °F 89% 30.02 in 8.0 mi West 5.8 mph - N/A   Clear
8:53 AM 51.1 °F - 46.9 °F 86% 30.03 in 10.0 mi West 6.9 mph - N/A   Clear
9:53 AM 57.0 °F - 48.0 °F 72% 30.05 in 10.0 mi NW 8.1 mph - N/A   Clear
10:53 AM 60.1 °F - 48.0 °F 64% 30.05 in 10.0 mi WNW 8.1 mph - N/A   Clear
11:53 AM 64.0 °F - 46.0 °F 52% 30.04 in 10.0 mi WNW 8.1 mph - N/A   Clear
12:53 PM 66.9 °F - 46.0 °F 47% 30.02 in 10.0 mi West 9.2 mph - N/A   Clear
1:53 PM 69.1 °F - 45.0 °F 42% 30.00 in 10.0 mi NNW 8.1 mph - N/A   Clear
2:53 PM 68.0 °F - 46.9 °F 47% 29.98 in 10.0 mi South 11.5 mph - N/A   Clear
3:53 PM 64.0 °F - 48.9 °F 58% 29.96 in 10.0 mi South 9.2 mph - N/A   Clear
4:53 PM 62.1 °F - 50.0 °F 65% 29.96 in 10.0 mi SSW 11.5 mph - N/A   Clear
5:53 PM 61.0 °F - 50.0 °F 67% 29.96 in 10.0 mi SSW 12.7 mph - N/A   Clear
6:53 PM 57.9 °F - 50.0 °F 75% 29.97 in 10.0 mi SW 12.7 mph - N/A   Clear
7:53 PM 57.0 °F - 50.0 °F 77% 29.99 in 10.0 mi SW 11.5 mph - N/A   Clear
8:53 PM 55.9 °F - 48.9 °F 77% 30.00 in 10.0 mi SW 11.5 mph - N/A   Clear
9:53 PM 55.0 °F - 48.9 °F 80% 30.01 in 10.0 mi SW 9.2 mph - N/A   Clear
10:53 PM 53.1 °F - 48.9 °F 86% 30.02 in 10.0 mi SW 9.2 mph - N/A   Clear
11:53 PM 52.0 °F - 48.9 °F 89% 30.02 in 10.0 mi SW 6.9 mph - N/A   Clear